Stations météo

réclame
Mon MeteoGroup
Fair Isle, Grande-Bretagne (3008): Température de l'air & dewpoint: 12.01.2020 01:00:00 - 18.01.2020 01:00:00 (GMT)Fair Isle, Grande-Bretagne (3008): Température de l'air -20cm & Température de l'air -100cm: 12.01.2020 01:00:00 - 18.01.2020 01:00:00 (GMT)Fair Isle, Grande-Bretagne (3008): Vitesse du vent & gusts: 12.01.2020 01:00:00 - 18.01.2020 01:00:00 (GMT)Fair Isle, Grande-Bretagne (3008): Direction du vent: 12.01.2020 01:00:00 - 18.01.2020 01:00:00 (GMT)Fair Isle, Grande-Bretagne (3008): reduced air pressure: 12.01.2020 01:00:00 - 18.01.2020 01:00:00 (GMT)Fair Isle, Grande-Bretagne (3008): visibility: 12.01.2020 01:00:00 - 18.01.2020 01:00:00 (GMT)Fair Isle, Grande-Bretagne (3008): Quantités de précipitations: 12.01.2020 01:00:00 - 18.01.2020 01:00:00 (GMT)
Date & Time tt [°C] td [°C] tt -20cm [°C] tt -100cm [°C] ff [km/h] ff [knt] fx [km/h] fx [knt] dd ppp [hPa] vv [km] rr [mm]
18.01.2020 01:00:00 6,8 3,0 - - 44 24 76 41 W 1002,6 12 0,0
18.01.2020 00:00:00 7,1 3,5 - - 37 20 72 39 W 1001,9 12 0,0
17.01.2020 23:00:00 7,1 3,7 - - 42 23 72 39 W 1000,8 11 0,0
17.01.2020 22:00:00 7,1 3,6 - - 50 27 67 36 W 999,7 12 0,0
17.01.2020 21:00:00 6,9 4,3 - - 46 25 72 39 W 999,1 11 0,0
17.01.2020 20:00:00 7,3 4,4 - - 46 25 80 43 WSW 998,4 10 0,0
17.01.2020 19:00:00 7,1 4,7 - - 55 30 74 40 SW 997,6 10 0,0
17.01.2020 18:00:00 7,1 4,7 - - 59 32 78 42 WSW 997,0 10 0,0
17.01.2020 17:00:00 7,0 4,6 - - 61 33 76 41 SW 996,5 11 0,0
17.01.2020 16:00:00 7,3 4,2 - - 55 30 81 44 SW 995,8 11 0,0
17.01.2020 15:00:00 7,4 4,0 - - 59 32 76 41 SW 995,0 10 0,0
17.01.2020 14:00:00 6,9 3,9 - - 55 30 80 43 SSW 994,4 13 0,0
17.01.2020 13:00:00 6,9 3,7 - - 59 32 83 45 SSW 994,2 9 0,0
17.01.2020 12:00:00 6,9 3,0 - - 61 33 89 48 SSW 993,9 12 0,0
17.01.2020 11:00:00 6,9 2,2 - - 65 35 87 47 SSW 994,0 12 0,0
17.01.2020 10:00:00 6,6 2,3 - - 63 34 81 44 S 993,7 16 0,0
17.01.2020 09:00:00 6,6 2,2 6,0 6,5 63 34 80 43 S 993,9 15 0,0
17.01.2020 08:00:00 6,8 2,6 - - 57 31 81 44 S 993,6 15 0,0
17.01.2020 07:00:00 6,8 2,9 - - 63 34 81 44 S 993,6 15 0,0
17.01.2020 06:00:00 6,9 3,4 - - 55 30 81 44 S 993,3 14 0,0
17.01.2020 05:00:00 7,0 3,7 - - 52 28 72 39 S 993,2 13 0,0
17.01.2020 04:00:00 7,4 4,6 - - 48 26 59 32 S 993,1 13 0,0
17.01.2020 03:00:00 7,5 4,2 - - 42 23 63 34 SSW 993,0 14 0,0
17.01.2020 02:00:00 7,9 4,9 - - 39 21 70 38 SSW 992,7 13 0,0
17.01.2020 01:00:00 7,9 4,5 - - 52 28 74 40 SSW 992,1 14 0,0
17.01.2020 00:00:00 8,4 6,7 - - 48 26 70 38 SSW 991,2 9 0,0
16.01.2020 23:00:00 8,5 7,4 - - 50 27 74 40 S 990,4 7 0,0
16.01.2020 22:00:00 8,4 7,4 - - 48 26 74 40 S 990,1 7 0,4
16.01.2020 21:00:00 7,9 7,3 - - 52 28 72 39 SSE 990,5 5 1,0
16.01.2020 20:00:00 7,2 6,2 - - 52 28 78 42 SE 992,3 6 3,4
16.01.2020 19:00:00 7,3 5,7 - - 50 27 72 39 SE 994,3 6 0,2
16.01.2020 18:00:00 7,5 5,7 - - 46 25 70 38 SE 995,5 9 0,0
16.01.2020 17:00:00 7,5 6,1 - - 37 20 63 34 SE 997,1 9 0,0
16.01.2020 16:00:00 7,7 6,2 - - 42 23 59 32 SSE 999,0 9 0,0
16.01.2020 15:00:00 7,6 6,2 - - 39 21 55 30 SSE 1000,4 9 0,2
16.01.2020 14:00:00 7,5 6,4 - - 34 18 50 27 SSE 1001,8 8 0,4
16.01.2020 13:00:00 7,5 5,8 - - 37 20 59 32 S 1002,9 10 0,0
16.01.2020 12:00:00 7,4 4,7 - - 44 24 57 31 S 1003,6 13 0,0
16.01.2020 11:00:00 6,7 3,3 - - 35 19 57 31 S 1004,3 20 0,0
16.01.2020 10:00:00 6,8 3,9 - - 41 22 54 29 SSW 1004,0 13 0,0
16.01.2020 09:00:00 6,8 3,5 5,9 6,5 34 18 50 27 SSW 1003,5 12 0,0
16.01.2020 08:00:00 6,8 3,2 - - 42 23 57 31 SW 1002,7 11 0,0
16.01.2020 07:00:00 6,7 3,5 - - 42 23 57 31 SSW 1001,6 12 0,0
16.01.2020 06:00:00 7,1 3,9 - - 41 22 80 43 SW 1000,9 12 0,0
16.01.2020 05:00:00 7,1 3,4 - - 54 29 93 50 SW 999,3 15 0,0
16.01.2020 04:00:00 7,7 4,1 - - 57 31 80 43 WSW 998,0 11 0,0
16.01.2020 03:00:00 7,8 4,9 - - 48 26 76 41 WSW 996,9 9 0,0
16.01.2020 02:00:00 7,7 5,2 - - 48 26 80 43 WSW 995,5 10 0,0
16.01.2020 01:00:00 7,5 4,9 - - 50 27 74 40 WSW 993,9 9 0,0
16.01.2020 00:00:00 7,9 5,0 - - 52 28 76 41 WSW 991,8 8 0,0
15.01.2020 23:00:00 7,6 4,7 - - 57 31 89 48 WSW 989,8 9 0,0
15.01.2020 22:00:00 7,3 5,0 - - 59 32 83 45 WSW 988,0 11 0,0
15.01.2020 21:00:00 7,3 5,3 - - 57 31 78 42 SW 986,5 10 0,2
15.01.2020 20:00:00 7,3 5,3 - - 52 28 72 39 SW 985,3 11 0,4
15.01.2020 19:00:00 7,4 5,3 - - 44 24 65 35 SSW 984,3 7 0,0
15.01.2020 18:00:00 7,3 4,8 - - 52 28 68 37 SW 982,8 13 0,0
15.01.2020 17:00:00 7,3 5,8 - - 41 22 67 36 SW 981,8 9 0,2
15.01.2020 16:00:00 7,1 5,5 - - 44 24 63 34 SSW 980,3 7 0,2
15.01.2020 15:00:00 6,6 4,6 - - 46 25 72 39 SSW 979,6 7 0,0
15.01.2020 14:00:00 6,8 4,5 - - 52 28 76 41 SSW 978,8 10 0,0
15.01.2020 13:00:00 6,9 4,0 - - 55 30 85 46 SSW 978,2 9 0,0
15.01.2020 12:00:00 6,7 3,5 - - 65 35 93 50 SSW 977,2 10 0,0
15.01.2020 11:00:00 6,9 3,0 - - 65 35 89 48 S 976,9 12 0,0
15.01.2020 10:00:00 6,6 2,8 - - 70 38 93 50 S 976,0 14 0,0
15.01.2020 09:00:00 6,1 2,7 5,7 6,7 72 39 93 50 S 975,5 15 0,0
15.01.2020 08:00:00 5,9 2,1 - - 70 38 91 49 S 974,8 12 0,0
15.01.2020 07:00:00 5,8 2,0 - - 67 36 91 49 S 974,9 10 0,0
15.01.2020 06:00:00 5,6 1,8 - - 59 32 85 46 SSW 974,6 14 0,0
15.01.2020 05:00:00 5,5 1,9 - - 55 30 80 43 SSW 974,7 14 0,0
15.01.2020 04:00:00 5,4 2,0 - - 54 29 78 42 SSW 975,1 12 0,0
15.01.2020 03:00:00 5,4 1,6 - - 52 28 74 40 SSW 974,7 14 0,0
15.01.2020 02:00:00 5,3 1,5 - - 52 28 72 39 SSW 974,7 13 0,0
15.01.2020 01:00:00 5,3 1,5 - - 54 29 76 41 SSW 974,2 18 0,0
15.01.2020 00:00:00 5,3 1,5 - - 48 26 67 36 SSW 973,9 18 0,0
14.01.2020 23:00:00 5,3 1,7 - - 48 26 70 38 SSW 973,8 14 0,0
14.01.2020 22:00:00 5,4 0,7 - - 52 28 67 36 SSW 973,5 22 0,0
14.01.2020 21:00:00 5,6 1,7 - - 46 25 65 35 SSW 973,2 15 0,0
14.01.2020 20:00:00 5,8 1,9 - - 46 25 68 37 S 973,6 19 0,0
14.01.2020 19:00:00 5,8 0,7 - - 54 29 68 37 S 973,8 16 0,0
14.01.2020 18:00:00 5,6 1,1 - - 52 28 70 38 S 974,1 24 0,0
14.01.2020 17:00:00 5,7 0,4 - - 50 27 72 39 S 974,4 23 0,0
14.01.2020 16:00:00 5,6 0,8 - - 55 30 74 40 S 974,8 21 0,0
14.01.2020 15:00:00 5,7 1,0 - - 54 29 72 39 SSW 975,3 21 0,0
14.01.2020 14:00:00 5,7 1,5 - - 52 28 78 42 S 975,8 15 0,0
14.01.2020 13:00:00 5,5 1,8 - - 57 31 78 42 S 976,2 12 0,0
14.01.2020 12:00:00 5,3 1,4 - - 55 30 78 42 SSW 976,2 15 0,0
14.01.2020 11:00:00 5,2 1,2 - - 55 30 83 45 SSW 976,0 13 0,0
14.01.2020 10:00:00 5,1 1,0 - - 59 32 80 43 SSW 975,2 12 0,0
14.01.2020 09:00:00 5,0 1,3 6,0 6,7 57 31 81 44 SSW 974,3 10 0,0
14.01.2020 08:00:00 5,2 0,8 - - 57 31 80 43 SSW 973,4 14 0,0
14.01.2020 07:00:00 5,2 1,3 - - 59 32 85 46 SSW 972,9 11 0,0
14.01.2020 06:00:00 5,1 1,3 - - 59 32 81 44 SSW 971,9 13 0,0
14.01.2020 05:00:00 5,4 1,9 - - 55 30 81 44 SSW 971,1 12 0,0
14.01.2020 04:00:00 6,0 2,6 - - 50 27 81 44 SSW 971,3 11 0,0
14.01.2020 03:00:00 6,2 2,8 - - 63 34 85 46 SSW 970,5 9 0,0
14.01.2020 02:00:00 6,9 3,4 - - 61 33 85 46 SSW 970,1 8 0,0
14.01.2020 01:00:00 7,2 3,7 - - 63 34 87 47 S 969,6 10 0,0
14.01.2020 00:00:00 7,5 4,4 - - 63 34 91 49 S 968,8 12 0,0
13.01.2020 23:00:00 7,4 4,2 - - 65 35 93 50 S 968,2 8 0,0
13.01.2020 22:00:00 7,7 4,9 - - 76 41 100 54 S 968,5 7 0,0
13.01.2020 21:00:00 7,8 6,1 - - 70 38 117 63 SSE 969,2 6 0,4
13.01.2020 20:00:00 6,5 5,3 - - 89 48 115 62 SSE 971,6 2,8 3,2
13.01.2020 19:00:00 6,8 5,2 - - 74 40 109 59 SE 974,1 4,3 0,4
13.01.2020 18:00:00 7,1 3,9 - - 81 44 111 60 SSE 977,2 6 0,0
13.01.2020 17:00:00 7,1 4,3 - - 78 42 104 56 SSE 979,6 7 0,0
13.01.2020 16:00:00 6,9 3,9 - - 74 40 96 52 SSE 982,7 9 0,0
13.01.2020 15:00:00 6,8 3,5 - - 68 37 91 49 SSE 985,5 11 0,0
13.01.2020 14:00:00 6,8 4,1 - - 52 28 78 42 SSE 987,9 11 0,0
13.01.2020 13:00:00 6,6 3,3 - - 61 33 85 46 S 990,3 13 0,0
13.01.2020 12:00:00 6,1 3,2 - - 52 28 72 39 S 991,7 12 0,0
13.01.2020 11:00:00 6,2 3,3 - - 46 25 65 35 S 993,0 14 0,0
13.01.2020 10:00:00 5,6 2,3 - - 46 25 61 33 S 994,5 16 0,0
13.01.2020 09:00:00 5,4 2,6 6,0 6,7 46 25 65 35 S 995,4 20 0,0
13.01.2020 08:00:00 5,8 2,1 - - 50 27 68 37 SSW 995,8 17 0,0
13.01.2020 07:00:00 6,0 2,6 - - 50 27 72 39 SSW 996,6 14 0,0
13.01.2020 06:00:00 5,9 2,6 - - 54 29 70 38 SSW 997,0 19 0,0
13.01.2020 05:00:00 5,9 2,9 - - 54 29 67 36 S 997,2 17 0,0
13.01.2020 04:00:00 6,0 3,0 - - 46 25 67 36 SSW 997,9 9 0,0
13.01.2020 03:00:00 6,2 3,0 - - 52 28 70 38 SSW 998,6 14 0,0
13.01.2020 02:00:00 6,2 3,2 - - 46 25 68 37 SSW 998,9 10 0,0
13.01.2020 01:00:00 6,0 2,9 - - 50 27 67 36 SSW 999,1 15 0,0
13.01.2020 00:00:00 5,6 2,7 - - 50 27 67 36 SSW 1000,0 13 0,0
12.01.2020 23:00:00 5,2 1,8 - - 42 23 63 34 SSW 1000,5 19 0,0
12.01.2020 22:00:00 5,1 2,0 - - 44 24 63 34 SSW 1000,7 11 0,0
12.01.2020 21:00:00 4,8 2,4 - - 41 22 65 35 SW 1001,1 11 0,0
12.01.2020 20:00:00 4,8 2,7 - - 44 24 67 36 SW 1000,9 10 1,2
12.01.2020 19:00:00 5,0 2,8 - - 42 23 61 33 SW 1000,9 11 0,0
12.01.2020 18:00:00 3,6 1,8 - - 52 28 70 38 SW 1001,0 16 0,2
12.01.2020 17:00:00 4,5 1,8 - - 44 24 85 46 WSW 1000,8 17 0,4
12.01.2020 16:00:00 5,1 0,8 - - 54 29 76 41 SW 1000,4 13 0,0
12.01.2020 15:00:00 5,2 1,6 - - 48 26 76 41 WSW 1000,4 19 0,0
12.01.2020 14:00:00 5,3 1,4 - - 55 30 74 40 WSW 1000,5 15 0,0
12.01.2020 13:00:00 5,0 2,5 - - 46 25 72 39 SW 1000,5 14 0,0
12.01.2020 12:00:00 5,0 1,2 - - 52 28 72 39 WSW 1000,4 13 0,0
12.01.2020 11:00:00 4,4 2,1 - - 48 26 94 51 SW 1000,0 13 0,4
12.01.2020 10:00:00 5,0 2,6 - - 52 28 70 38 SW 1000,2 9 0,0
12.01.2020 09:00:00 4,6 2,3 6,2 6,7 52 28 78 42 SW 999,9 12 0,2
12.01.2020 08:00:00 3,8 2,5 - - 55 30 87 47 WSW 1000,2 15 0,4
12.01.2020 07:00:00 3,6 2,6 - - 29 16 74 40 WSW 1000,2 11 0,0
12.01.2020 06:00:00 5,2 2,3 - - 52 28 81 44 SW 1000,1 17 0,0
12.01.2020 05:00:00 5,3 1,3 - - 55 30 85 46 WSW 1000,6 22 0,0
12.01.2020 04:00:00 5,0 1,9 - - 55 30 80 43 WSW 1000,6 16 0,0
12.01.2020 03:00:00 5,2 1,5 - - 50 27 81 44 WSW 1000,4 15 0,2
12.01.2020 02:00:00 6,0 1,6 - - 48 26 74 40 WSW 1000,1 13 0,0
12.01.2020 01:00:00 5,3 2,4 - - 46 25 74 40 WSW 1000,0 10 0,0

tt = Température de l'air
td = dewpoint
tt -20cm = Température de l'air -20cm
tt -100cm = Température de l'air -100cm
ff = Vitesse du vent
fx = gusts
dd = Direction du vent
ppp = reduced air pressure
vv = visibility
rr = Quantités de précipitations

stations d'obs. à proximité